,,Stat6,,Stat2,,Stat8,,Stat9,,Stat10,,Wind1,,Wind1,
time,status,PA1M_AVG,status,PR1M_SUM,status,RH1M_AVG,status,SR1M_AVG,status,TA1M_AVG,status,W1dAve1m,status,W1sAve1m,
2009-08-14, 00:00:00,VALID,916.554,VALID,0,VALID,100,VALID,-0.0849042,VALID,20.1489,VALID,324,VALID,0,
2009-08-14, 00:01:00,VALID,916.555,VALID,0,VALID,100,VALID,-0.0679233,VALID,20.1356,VALID,351,VALID,0,
2009-08-14, 00:02:00,VALID,916.544,VALID,0,VALID,100,VALID,-0.0679233,VALID,20.1359,VALID,358,VALID,0,
2009-08-14, 00:03:00,VALID,916.523,VALID,0,VALID,100,VALID,-0.0679233,VALID,20.1294,VALID,5,VALID,0,
2009-08-14, 00:04:00,VALID,916.538,VALID,0,VALID,100,VALID,-0.0339617,VALID,20.1194,VALID,27,VALID,0,
2009-08-14, 00:05:00,VALID,916.549,VALID,0,VALID,100,VALID,-0.0339617,VALID,20.1194,VALID,27,VALID,0,
2009-08-14, 00:06:00,VALID,916.556,VALID,0,VALID,100,VALID,-0.0679233,VALID,20.0934,VALID,27,VALID,0,
2009-08-14, 00:07:00,VALID,916.568,VALID,0,VALID,100,VALID,-0.0679233,VALID,20.0513,VALID,35,VALID,0,
2009-08-14, 00:08:00,VALID,916.56,VALID,0,VALID,100,VALID,-0.0509425,VALID,20.0418,VALID,51,VALID,0,
2009-08-14, 00:09:00,VALID,916.567,VALID,0,VALID,100,VALID,-0.0679233,VALID,20.032,VALID,95,VALID,0,
2009-08-14, 00:10:00,VALID,916.56,VALID,0,VALID,100,VALID,-0.0509425,VALID,19.9928,VALID,83,VALID,0,
2009-08-14, 00:11:00,VALID,916.554,VALID,0,VALID,100,VALID,-0.0679233,VALID,19.9701,VALID,75,VALID,0,
2009-08-14, 00:12:00,VALID,916.534,VALID,0,VALID,100,VALID,-0.0339617,VALID,19.9636,VALID,72,VALID,0,
2009-08-14, 00:13:00,VALID,916.504,VALID,0,VALID,100,VALID,-0.0169808,VALID,19.9507,VALID,72,VALID,0,
2009-08-14, 00:14:00,VALID,916.485,VALID,0,VALID,100,VALID,0,VALID,19.9377,VALID,72,VALID,0,
2009-08-14, 00:15:00,VALID,916.476,VALID,0,VALID,100,VALID,0,VALID,19.9307,VALID,72,VALID,0,
2009-08-14, 00:16:00,VALID,916.483,VALID,0,VALID,100,VALID,-0.0169808,VALID,19.9344,VALID,88,VALID,0,
2009-08-14, 00:17:00,VALID,916.501,VALID,0,VALID,100,VALID,-0.0339617,VALID,19.915,VALID,98,VALID,0,
2009-08-14, 00:18:00,VALID,916.506,VALID,0,VALID,100,VALID,-0.0339617,VALID,19.8493,VALID,98,VALID,0,
2009-08-14, 00:19:00,VALID,916.503,VALID,0,VALID,100,VALID,0,VALID,19.8301,VALID,98,VALID,0,
2009-08-14, 00:20:00,VALID,916.485,VALID,0,VALID,100,VALID,-0.0339617,VALID,19.7976,VALID,98,VALID,0,
2009-08-14, 00:21:00,VALID,916.464,VALID,0,VALID,100,VALID,-0.0169808,VALID,19.8079,VALID,98,VALID,0,
2009-08-14, 00:22:00,VALID,916.43,VALID,0,VALID,100,VALID,-0.0679233,VALID,19.8179,VALID,98,VALID,0,
2009-08-14, 00:23:00,VALID,916.414,VALID,0,VALID,100,VALID,-0.118866,VALID,19.8179,VALID,98,VALID,0,
2009-08-14, 00:24:00,VALID,916.396,VALID,0,VALID,100,VALID,-0.0679233,VALID,19.8308,VALID,98,VALID,0,
2009-08-14, 00:25:00,VALID,916.367,VALID,0,VALID,100,VALID,-0.0849042,VALID,19.8501,VALID,98,VALID,0,
2009-08-14, 00:26:00,VALID,916.351,VALID,0,VALID,100,VALID,-0.0509425,VALID,19.8241,VALID,98,VALID,0,
2009-08-14, 00:27:00,VALID,916.345,VALID,0,VALID,100,VALID,-0.0339617,VALID,19.8174,VALID,98,VALID,0,
2009-08-14, 00:28:00,VALID,916.333,VALID,0,VALID,100,VALID,-0.0339617,VALID,19.8336,VALID,98,VALID,0,
2009-08-14, 00:29:00,VALID,916.309,VALID,0,VALID,100,VALID,-0.0679233,VALID,19.8403,VALID,98,VALID,0,
2009-08-14, 00:30:00,VALID,916.262,VALID,0,VALID,100,VALID,-0.0169808,VALID,19.8526,VALID,98,VALID,0,
2009-08-14, 00:31:00,VALID,916.21,VALID,0,VALID,100,VALID,-0.0339617,VALID,19.876,VALID,98,VALID,0,
2009-08-14, 00:32:00,VALID,916.161,VALID,0,VALID,100,VALID,-0.0679233,VALID,19.8955,VALID,98,VALID,0,
2009-08-14, 00:33:00,VALID,916.133,VALID,0,VALID,100,VALID,-0.0169808,VALID,19.908,VALID,98,VALID,0,
2009-08-14, 00:34:00,VALID,916.105,VALID,0,VALID,100,VALID,-0.0509425,VALID,19.9117,VALID,98,VALID,0,
2009-08-14, 00:35:00,VALID,916.108,VALID,0,VALID,100,VALID,-0.0339617,VALID,19.9017,VALID,98,VALID,0,
2009-08-14, 00:36:00,VALID,916.123,VALID,0,VALID,100,VALID,-0.0169808,VALID,19.8922,VALID,98,VALID,0,
2009-08-14, 00:37:00,VALID,916.161,VALID,0,VALID,100,VALID,-0.0679233,VALID,19.869,VALID,98,VALID,0,
2009-08-14, 00:38:00,VALID,916.166,VALID,0,VALID,100,VALID,-0.0339617,VALID,19.8728,VALID,115,VALID,0,
2009-08-14, 00:39:00,VALID,916.179,VALID,0,VALID,100,VALID,-0.0679233,VALID,19.8788,VALID,126,VALID,0,
2009-08-14, 00:40:00,VALID,916.173,VALID,0,VALID,100,VALID,-0.0679233,VALID,19.9057,VALID,140,VALID,0,
2009-08-14, 00:41:00,VALID,916.152,VALID,0,VALID,100,VALID,-0.118866,VALID,19.922,VALID,175,VALID,0,
2009-08-14, 00:42:00,VALID,916.156,VALID,0,VALID,100,VALID,-0.0849042,VALID,19.9215,VALID,175,VALID,0,
2009-08-14, 00:43:00,VALID,916.167,VALID,0,VALID,100,VALID,-0.118866,VALID,19.9377,VALID,175,VALID,0,
2009-08-14, 00:44:00,VALID,916.189,VALID,0,VALID,100,VALID,-0.0679233,VALID,19.9379,VALID,175,VALID,0,
2009-08-14, 00:45:00,VALID,916.221,VALID,0,VALID,100,VALID,-0.0849042,VALID,19.9217,VALID,175,VALID,0,
2009-08-14, 00:46:00,VALID,916.25,VALID,0,VALID,100,VALID,-0.0679233,VALID,19.8987,VALID,172,VALID,0,
2009-08-14, 00:47:00,VALID,916.243,VALID,0,VALID,100,VALID,-0.0509425,VALID,19.8955,VALID,172,VALID,0,
2009-08-14, 00:48:00,VALID,916.257,VALID,0,VALID,100,VALID,-0.0849042,VALID,19.8788,VALID,172,VALID,0,
2009-08-14, 00:49:00,VALID,916.253,VALID,0,VALID,100,VALID,-0.0509425,VALID,19.8828,VALID,172,VALID,0,
2009-08-14, 00:50:00,VALID,916.289,VALID,0,VALID,100,VALID,-0.0509425,VALID,19.8663,VALID,172,VALID,0,
2009-08-14, 00:51:00,VALID,916.309,VALID,0,VALID,100,VALID,-0.0849042,VALID,19.8563,VALID,172,VALID,0,
2009-08-14, 00:52:00,VALID,916.349,VALID,0,VALID,100,VALID,-0.0509425,VALID,19.8633,VALID,172,VALID,0,
2009-08-14, 00:53:00,VALID,916.36,VALID,0,VALID,100,VALID,-0.0849042,VALID,19.8728,VALID,172,VALID,0,
2009-08-14, 00:54:00,VALID,916.364,VALID,0,VALID,100,VALID,-0.0509425,VALID,19.8893,VALID,172,VALID,0,
2009-08-14, 00:55:00,VALID,916.343,VALID,0,VALID,100,VALID,-0.0849042,VALID,19.892,VALID,172,VALID,0,
2009-08-14, 00:56:00,VALID,916.287,VALID,0,VALID,100,VALID,-0.0339617,VALID,19.9085,VALID,172,VALID,0,
2009-08-14, 00:57:00,VALID,916.253,VALID,0,VALID,100,VALID,-0.101885,VALID,19.915,VALID,189,VALID,0,
2009-08-14, 00:58:00,VALID,916.238,VALID,0,VALID,100,VALID,-0.0679233,VALID,19.9412,VALID,189,VALID,0,
2009-08-14, 00:59:00,VALID,916.236,VALID,0,VALID,100,VALID,-0.0849042,VALID,19.9571,VALID,189,VALID,0,
2009-08-14, 01:00:00,VALID,916.236,VALID,0,VALID,100,VALID,-0.0509425,VALID,19.9736,VALID,189,VALID,0,
2009-08-14, 01:01:00,VALID,916.246,VALID,0,VALID,100,VALID,-0.0679233,VALID,19.9796,VALID,189,VALID,0,
2009-08-14, 01:02:00,VALID,916.263,VALID,0,VALID,100,VALID,-0.0679233,VALID,19.9831,VALID,188,VALID,0,
2009-08-14, 01:03:00,VALID,916.276,VALID,0,VALID,100,VALID,-0.0679233,VALID,19.9834,VALID,188,VALID,0,
2009-08-14, 01:04:00,VALID,916.278,VALID,0,VALID,100,VALID,-0.0679233,VALID,19.9799,VALID,188,VALID,0,
2009-08-14, 01:05:00,VALID,916.295,VALID,0,VALID,100,VALID,-0.101885,VALID,19.9866,VALID,188,VALID,0,
2009-08-14, 01:06:00,VALID,916.33,VALID,0,VALID,100,VALID,-0.0849042,VALID,19.9866,VALID,188,VALID,0,
2009-08-14, 01:07:00,VALID,916.355,VALID,0,VALID,100,VALID,-0.0849042,VALID,19.9801,VALID,188,VALID,0,
2009-08-14, 01:08:00,VALID,916.366,VALID,0,VALID,100,VALID,-0.101885,VALID,19.9769,VALID,188,VALID,0,
2009-08-14, 01:09:00,VALID,916.359,VALID,0,VALID,100,VALID,-0.0849042,VALID,19.9641,VALID,188,VALID,0,
2009-08-14, 01:10:00,VALID,916.332,VALID,0,VALID,100,VALID,-0.0849042,VALID,19.9636,VALID,188,VALID,0,
2009-08-14, 01:11:00,VALID,916.307,VALID,0,VALID,100,VALID,-0.0849042,VALID,19.9866,VALID,188,VALID,0,
2009-08-14, 01:12:00,VALID,916.301,VALID,0,VALID,100,VALID,-0.0339617,VALID,19.9926,VALID,188,VALID,0,
2009-08-14, 01:13:00,VALID,916.288,VALID,0,VALID,100,VALID,0.0339617,VALID,20.0175,VALID,188,VALID,0,
2009-08-14, 01:14:00,VALID,916.294,VALID,0,VALID,100,VALID,0.0339617,VALID,20.0238,VALID,188,VALID,0,
2009-08-14, 01:15:00,VALID,916.318,VALID,0,VALID,100,VALID,0.0339617,VALID,19.9878,VALID,188,VALID,0,
2009-08-14, 01:16:00,VALID,916.344,VALID,0,VALID,100,VALID,0.0339617,VALID,19.9332,VALID,106,VALID,0,
2009-08-14, 01:17:00,VALID,916.353,VALID,0,VALID,100,VALID,0.0339617,VALID,19.8678,VALID,76,VALID,0,
2009-08-14, 01:18:00,VALID,916.342,VALID,0,VALID,100,VALID,0.0169808,VALID,19.8453,VALID,76,VALID,0,
2009-08-14, 01:19:00,VALID,916.333,VALID,0,VALID,100,VALID,0,VALID,19.8615,VALID,76,VALID,0,
2009-08-14, 01:20:00,VALID,916.322,VALID,0,VALID,100,VALID,0.0169808,VALID,19.8618,VALID,85,VALID,0,
2009-08-14, 01:21:00,VALID,916.312,VALID,0,VALID,100,VALID,-0.0169808,VALID,19.8229,VALID,86,VALID,0,
2009-08-14, 01:22:00,VALID,916.295,VALID,0,VALID,100,VALID,0,VALID,19.7999,VALID,86,VALID,0,
2009-08-14, 01:23:00,VALID,916.263,VALID,0,VALID,100,VALID,0,VALID,19.7974,VALID,39,VALID,0,
2009-08-14, 01:24:00,VALID,916.24,VALID,0,VALID,100,VALID,-0.0339617,VALID,19.7612,VALID,8,VALID,0,
2009-08-14, 01:25:00,VALID,916.219,VALID,0,VALID,100,VALID,0.0169808,VALID,19.7385,VALID,8,VALID,0,
2009-08-14, 01:26:00,VALID,916.22,VALID,0,VALID,100,VALID,-0.0169808,VALID,19.752,VALID,7,VALID,0,
2009-08-14, 01:27:00,VALID,916.218,VALID,0,VALID,100,VALID,0,VALID,19.7744,VALID,353,VALID,0,
2009-08-14, 01:28:00,VALID,916.211,VALID,0,VALID,100,VALID,0.0169808,VALID,19.7839,VALID,353,VALID,0,
2009-08-14, 01:29:00,VALID,916.189,VALID,0,VALID,100,VALID,0,VALID,19.8099,VALID,353,VALID,0,
2009-08-14, 01:30:00,VALID,916.176,VALID,0,VALID,100,VALID,0,VALID,19.8356,VALID,352,VALID,0,
2009-08-14, 01:31:00,VALID,916.168,VALID,0,VALID,100,VALID,0,VALID,19.869,VALID,326,VALID,0,
2009-08-14, 01:32:00,VALID,916.175,VALID,0,VALID,100,VALID,-0.0169808,VALID,19.8753,VALID,326,VALID,0,
2009-08-14, 01:33:00,VALID,916.188,VALID,0,VALID,100,VALID,0,VALID,19.8753,VALID,326,VALID,0,
2009-08-14, 01:34:00,VALID,916.197,VALID,0,VALID,100,VALID,0,VALID,19.868,VALID,326,VALID,0,
2009-08-14, 01:35:00,VALID,916.194,VALID,0,VALID,100,VALID,0,VALID,19.8685,VALID,326,VALID,0,
2009-08-14, 01:36:00,VALID,916.184,VALID,0,VALID,100,VALID,0.0339617,VALID,19.8388,VALID,326,VALID,0,
2009-08-14, 01:37:00,VALID,916.168,VALID,0,VALID,100,VALID,0,VALID,19.7999,VALID,326,VALID,0,
2009-08-14, 01:38:00,VALID,916.157,VALID,0,VALID,100,VALID,0,VALID,19.8001,VALID,326,VALID,0,
2009-08-14, 01:39:00,VALID,916.145,VALID,0,VALID,100,VALID,0,VALID,19.7774,VALID,326,VALID,0,
2009-08-14, 01:40:00,VALID,916.136,VALID,0,VALID,100,VALID,0.0169808,VALID,19.7612,VALID,326,VALID,0,
2009-08-14, 01:41:00,VALID,916.112,VALID,0,VALID,100,VALID,0,VALID,19.7158,VALID,326,VALID,0,
2009-08-14, 01:42:00,VALID,916.101,VALID,0,VALID,100,VALID,-0.0169808,VALID,19.6611,VALID,326,VALID,0,
2009-08-14, 01:43:00,VALID,916.056,VALID,0,VALID,100,VALID,-0.0509425,VALID,19.6424,VALID,326,VALID,0,
2009-08-14, 01:44:00,VALID,916.023,VALID,0,VALID,100,VALID,-0.0339617,VALID,19.6224,VALID,326,VALID,0,
2009-08-14, 01:45:00,VALID,915.983,VALID,0,VALID,100,VALID,-0.0169808,VALID,19.6424,VALID,328,VALID,0,
2009-08-14, 01:46:00,VALID,915.966,VALID,0,VALID,100,VALID,-0.0509425,VALID,19.6651,VALID,345,VALID,0,
2009-08-14, 01:47:00,VALID,915.948,VALID,0,VALID,100,VALID,-0.0509425,VALID,19.704,VALID,346,VALID,0,
2009-08-14, 01:48:00,VALID,915.916,VALID,0,VALID,100,VALID,-0.0339617,VALID,19.7527,VALID,347,VALID,0,
2009-08-14, 01:49:00,VALID,915.874,VALID,0,VALID,100,VALID,0,VALID,19.7495,VALID,332,VALID,0,
2009-08-14, 01:50:00,VALID,915.86,VALID,0,VALID,100,VALID,-0.0679233,VALID,19.7787,VALID,320,VALID,0,
2009-08-14, 01:51:00,VALID,915.836,VALID,0,VALID,100,VALID,-0.0679233,VALID,19.8176,VALID,321,VALID,0,
2009-08-14, 01:52:00,VALID,915.824,VALID,0,VALID,100,VALID,-0.0509425,VALID,19.8336,VALID,332,VALID,0,
2009-08-14, 01:53:00,VALID,915.841,VALID,0,VALID,100,VALID,-0.0169808,VALID,19.8368,VALID,332,VALID,0,
2009-08-14, 01:54:00,VALID,915.854,VALID,0,VALID,100,VALID,-0.0339617,VALID,19.8373,VALID,349,VALID,0,
2009-08-14, 01:55:00,VALID,915.887,VALID,0,VALID,100,VALID,-0.0339617,VALID,19.8174,VALID,356,VALID,0,
2009-08-14, 01:56:00,VALID,915.928,VALID,0,VALID,100,VALID,-0.0509425,VALID,19.8074,VALID,354,VALID,0.0688244,
2009-08-14, 01:57:00,VALID,915.98,VALID,0,VALID,100,VALID,-0.0849042,VALID,19.8273,VALID,353,VALID,0.0163517,
2009-08-14, 01:58:00,VALID,916.036,VALID,0,VALID,100,VALID,-0.101885,VALID,19.8273,VALID,5,VALID,0,
2009-08-14, 01:59:00,VALID,916.062,VALID,0,VALID,100,VALID,-0.0339617,VALID,19.8244,VALID,14,VALID,0,
2009-08-14, 02:00:00,VALID,916.093,VALID,0,VALID,100,VALID,0,VALID,19.8306,VALID,20,VALID,0.0767912,
2009-08-14, 02:01:00,VALID,916.112,VALID,0,VALID,100,VALID,-0.0339617,VALID,19.8336,VALID,28,VALID,0,
2009-08-14, 02:02:00,VALID,916.116,VALID,0,VALID,100,VALID,-0.0509425,VALID,19.8371,VALID,50,VALID,0,
2009-08-14, 02:03:00,VALID,916.116,VALID,0,VALID,100,VALID,-0.0339617,VALID,19.8301,VALID,45,VALID,0,
2009-08-14, 02:04:00,VALID,916.109,VALID,0,VALID,100,VALID,-0.0169808,VALID,19.8371,VALID,36,VALID,0,
2009-08-14, 02:05:00,VALID,916.093,VALID,0,VALID,100,VALID,-0.0509425,VALID,19.8501,VALID,11,VALID,0.110828,
2009-08-14, 02:06:00,VALID,916.07,VALID,0,VALID,100,VALID,-0.0169808,VALID,19.8625,VALID,19,VALID,0.0152439,
2009-08-14, 02:07:00,VALID,916.048,VALID,0,VALID,100,VALID,-0.0509425,VALID,19.8688,VALID,13,VALID,0,
2009-08-14, 02:08:00,VALID,916.004,VALID,0,VALID,100,VALID,-0.0849042,VALID,19.8823,VALID,65,VALID,0.0301847,
2009-08-14, 02:09:00,VALID,915.992,VALID,0,VALID,100,VALID,-0.0509425,VALID,19.8885,VALID,36,VALID,0.101215,
2009-08-14, 02:10:00,VALID,915.973,VALID,0,VALID,100,VALID,-0.0169808,VALID,19.8922,VALID,19,VALID,0.00117188,
2009-08-14, 02:11:00,VALID,915.925,VALID,0,VALID,100,VALID,0,VALID,19.895,VALID,23,VALID,0,
2009-08-14, 02:12:00,VALID,915.907,VALID,0,VALID,100,VALID,-0.0339617,VALID,19.8917,VALID,9,VALID,0,
2009-08-14, 02:13:00,VALID,915.874,VALID,0,VALID,100,VALID,-0.0509425,VALID,19.892,VALID,2,VALID,0.00117188,
2009-08-14, 02:14:00,VALID,915.849,VALID,0,VALID,100,VALID,0,VALID,19.892,VALID,358,VALID,0.00223214,
2009-08-14, 02:15:00,VALID,915.816,VALID,0,VALID,100,VALID,-0.0169808,VALID,19.902,VALID,1,VALID,0,
2009-08-14, 02:16:00,VALID,915.771,VALID,0,VALID,100,VALID,-0.0169808,VALID,19.898,VALID,5,VALID,0.355741,
2009-08-14, 02:17:00,VALID,915.737,VALID,0,VALID,100,VALID,-0.0339617,VALID,19.908,VALID,360,VALID,0.00218023,
2009-08-14, 02:18:00,VALID,915.713,VALID,0,VALID,100,VALID,0,VALID,19.9075,VALID,354,VALID,0,
2009-08-14, 02:19:00,VALID,915.697,VALID,0,VALID,100,VALID,-0.0169808,VALID,19.9175,VALID,7,VALID,0.12314,
2009-08-14, 02:20:00,VALID,915.677,VALID,0,VALID,100,VALID,-0.0849042,VALID,19.9147,VALID,11,VALID,0.00545058,
2009-08-14, 02:21:00,VALID,915.677,VALID,0,VALID,100,VALID,0,VALID,19.9244,VALID,27,VALID,0.0249256,
2009-08-14, 02:22:00,VALID,915.692,VALID,0,VALID,100,VALID,-0.0339617,VALID,19.9272,VALID,24,VALID,0.284108,
2009-08-14, 02:23:00,VALID,915.719,VALID,0,VALID,100,VALID,-0.0509425,VALID,19.9402,VALID,24,VALID,0.0541295,
2009-08-14, 02:24:00,VALID,915.731,VALID,0,VALID,100,VALID,-0.0339617,VALID,19.9504,VALID,21,VALID,0,
2009-08-14, 02:25:01,VALID,915.721,VALID,0,VALID,100,VALID,0,VALID,19.9437,VALID,11,VALID,0.0479403,
2009-08-14, 02:26:00,VALID,915.704,VALID,0,VALID,100,VALID,-0.0169808,VALID,19.9502,VALID,26,VALID,0.0588796,
2009-08-14, 02:27:01,VALID,915.685,VALID,0,VALID,100,VALID,-0.0169808,VALID,19.9534,VALID,27,VALID,0,
2009-08-14, 02:28:00,VALID,915.642,VALID,0,VALID,100,VALID,-0.0169808,VALID,19.9669,VALID,12,VALID,0.0012429,
2009-08-14, 02:29:00,VALID,915.611,VALID,0,VALID,100,VALID,-0.0679233,VALID,19.9764,VALID,20,VALID,0,
2009-08-14, 02:30:00,VALID,915.574,VALID,0,VALID,100,VALID,-0.0509425,VALID,19.9928,VALID,16,VALID,0,
2009-08-14, 02:31:01,VALID,915.54,VALID,0,VALID,100,VALID,-0.0169808,VALID,20.0091,VALID,360,VALID,0,
2009-08-14, 02:32:00,VALID,915.51,VALID,0,VALID,100,VALID,-0.0339617,VALID,20.0121,VALID,355,VALID,0.0946801,
2009-08-14, 02:33:00,VALID,915.499,VALID,0,VALID,100,VALID,-0.0169808,VALID,20.0116,VALID,7,VALID,0.400484,
2009-08-14, 02:34:00,VALID,915.485,VALID,0,VALID,100,VALID,-0.0169808,VALID,20.0151,VALID,20,VALID,0.177455,
2009-08-14, 02:35:00,VALID,915.481,VALID,0,VALID,100,VALID,-0.0339617,VALID,20.0086,VALID,19,VALID,0.000177557,
2009-08-14, 02:36:00,VALID,915.479,VALID,0,VALID,100,VALID,-0.0509425,VALID,20.0223,VALID,19,VALID,0.140988,
2009-08-14, 02:37:00,VALID,915.469,VALID,0,VALID,100,VALID,-0.0679233,VALID,20.0186,VALID,14,VALID,0.00360577,
2009-08-14, 02:38:01,VALID,915.468,VALID,0,VALID,100,VALID,-0.0339617,VALID,20.0151,VALID,15,VALID,0,
2009-08-14, 02:39:01,VALID,915.455,VALID,0,VALID,100,VALID,-0.0339617,VALID,20.028,VALID,27,VALID,0,
2009-08-14, 02:40:00,VALID,915.445,VALID,0,VALID,100,VALID,-0.0679233,VALID,20.0378,VALID,15,VALID,0,
2009-08-14, 02:41:00,VALID,915.434,VALID,0,VALID,100,VALID,-0.0509425,VALID,20.0445,VALID,16,VALID,0,
2009-08-14, 02:42:00,VALID,915.426,VALID,0,VALID,100,VALID,-0.0169808,VALID,20.0408,VALID,12,VALID,0.113917,
2009-08-14, 02:43:01,VALID,915.421,VALID,0,VALID,100,VALID,0.0169808,VALID,20.0527,VALID,12,VALID,0,
2009-08-14, 02:44:00,VALID,915.398,VALID,0,VALID,100,VALID,0.0339617,VALID,20.0397,VALID,14,VALID,0,
2009-08-14, 02:45:00,VALID,915.374,VALID,0,VALID,100,VALID,0.0339617,VALID,20.0238,VALID,23,VALID,0,
2009-08-14, 02:46:00,VALID,915.364,VALID,0,VALID,100,VALID,0.0339617,VALID,20.0173,VALID,13,VALID,0,
2009-08-14, 02:47:00,VALID,915.365,VALID,0,VALID,100,VALID,0,VALID,20.0008,VALID,9,VALID,0,
2009-08-14, 02:48:00,VALID,915.376,VALID,0,VALID,100,VALID,0.0169808,VALID,19.9846,VALID,10,VALID,0,
2009-08-14, 02:49:01,VALID,915.377,VALID,0,VALID,100,VALID,0,VALID,19.9751,VALID,357,VALID,0,
2009-08-14, 02:50:00,VALID,915.369,VALID,0,VALID,100,VALID,0.0339617,VALID,19.9621,VALID,10,VALID,0.0119913,
2009-08-14, 02:51:01,VALID,915.368,VALID,0,VALID,100,VALID,0.0169808,VALID,19.9654,VALID,17,VALID,0.0521439,
2009-08-14, 02:52:00,VALID,915.388,VALID,0,VALID,100,VALID,0,VALID,19.9716,VALID,22,VALID,0.00186012,
2009-08-14, 02:53:01,VALID,915.384,VALID,0,VALID,100,VALID,0.0169808,VALID,19.9654,VALID,45,VALID,0.0701172,
2009-08-14, 02:54:00,VALID,915.395,VALID,0,VALID,100,VALID,0.0509425,VALID,19.9554,VALID,43,VALID,0,
2009-08-14, 02:55:00,VALID,915.399,VALID,0.2,VALID,100,VALID,0.0339617,VALID,19.9556,VALID,22,VALID,0,
2009-08-14, 02:56:01,VALID,915.403,VALID,0,VALID,100,VALID,0.0169808,VALID,19.9491,VALID,19,VALID,0,
2009-08-14, 02:57:00,VALID,915.403,VALID,0,VALID,100,VALID,-0.0169808,VALID,19.9464,VALID,20,VALID,0.0252131,
2009-08-14, 02:58:00,VALID,915.395,VALID,0,VALID,100,VALID,-0.0509425,VALID,19.9374,VALID,20,VALID,0,
2009-08-14, 02:59:00,VALID,915.387,VALID,0.2,VALID,100,VALID,-0.0509425,VALID,19.9569,VALID,20,VALID,0,
2009-08-14, 03:00:00,VALID,915.369,VALID,0,VALID,100,VALID,-0.0849042,VALID,19.9472,VALID,20,VALID,0,
2009-08-14, 03:01:00,VALID,915.34,VALID,0,VALID,100,VALID,-0.101885,VALID,19.9247,VALID,20,VALID,0,
2009-08-14, 03:02:00,VALID,915.329,VALID,0,VALID,100,VALID,-0.0509425,VALID,19.9017,VALID,13,VALID,0.0106707,
2009-08-14, 03:03:00,VALID,915.321,VALID,0.2,VALID,100,VALID,-0.0509425,VALID,19.908,VALID,11,VALID,0,
2009-08-14, 03:04:01,VALID,915.319,VALID,0,VALID,100,VALID,-0.0679233,VALID,19.9052,VALID,358,VALID,0,
2009-08-14, 03:05:00,VALID,915.317,VALID,0,VALID,100,VALID,-0.0679233,VALID,19.8785,VALID,11,VALID,0,
2009-08-14, 03:06:00,VALID,915.307,VALID,0,VALID,100,VALID,-0.0509425,VALID,19.8628,VALID,9,VALID,0.00111607,
2009-08-14, 03:07:01,VALID,915.276,VALID,0.2,VALID,100,VALID,-0.101885,VALID,19.8601,VALID,13,VALID,0,
2009-08-14, 03:08:00,VALID,915.257,VALID,0,VALID,100,VALID,-0.0679233,VALID,19.8436,VALID,359,VALID,0.164435,
2009-08-14, 03:09:00,VALID,915.219,VALID,0,VALID,100,VALID,-0.0509425,VALID,19.8268,VALID,354,VALID,0.106076,
2009-08-14, 03:10:00,VALID,915.192,VALID,0,VALID,100,VALID,-0.0849042,VALID,19.8206,VALID,353,VALID,0.119606,
2009-08-14, 03:11:01,VALID,915.172,VALID,0,VALID,100,VALID,-0.0849042,VALID,19.8206,VALID,337,VALID,0,
2009-08-14, 03:12:01,VALID,915.181,VALID,0,VALID,100,VALID,-0.0849042,VALID,19.8174,VALID,313,VALID,0,
2009-08-14, 03:13:00,VALID,915.2,VALID,0.2,VALID,100,VALID,-0.0849042,VALID,19.8308,VALID,327,VALID,0.00109012,
2009-08-14, 03:14:01,VALID,915.26,VALID,0,VALID,100,VALID,-0.0849042,VALID,19.8306,VALID,328,VALID,0,
2009-08-14, 03:15:01,VALID,915.286,VALID,0,VALID,100,VALID,-0.0849042,VALID,19.8368,VALID,328,VALID,0,
2009-08-14, 03:16:01,VALID,915.285,VALID,0,VALID,100,VALID,-0.0679233,VALID,19.8501,VALID,347,VALID,0,
2009-08-14, 03:17:00,VALID,915.248,VALID,0,VALID,100,VALID,-0.0849042,VALID,19.8598,VALID,19,VALID,0,
2009-08-14, 03:18:01,VALID,915.224,VALID,0,VALID,100,VALID,-0.0849042,VALID,19.8268,VALID,25,VALID,0.103743,
2009-08-14, 03:19:01,VALID,915.219,VALID,0,VALID,100,VALID,-0.0849042,VALID,19.8011,VALID,9,VALID,1.15128,
2009-08-14, 03:20:00,VALID,915.204,VALID,0,VALID,100,VALID,-0.0339617,VALID,19.7852,VALID,14,VALID,0.454545,
2009-08-14, 03:21:01,VALID,915.211,VALID,0,VALID,100,VALID,-0.0679233,VALID,19.7749,VALID,3,VALID,0.225391,
2009-08-14, 03:22:01,VALID,915.204,VALID,0,VALID,100,VALID,-0.0169808,VALID,19.7879,VALID,18,VALID,0.843023,
2009-08-14, 03:23:01,VALID,915.211,VALID,0,VALID,100,VALID,-0.0849042,VALID,19.7787,VALID,17,VALID,1.02973,
2009-08-14, 03:24:01,VALID,915.214,VALID,0,VALID,100,VALID,-0.0679233,VALID,19.7912,VALID,25,VALID,0.59747,
2009-08-14, 03:25:01,VALID,915.215,VALID,0,VALID,100,VALID,-0.0679233,VALID,19.8014,VALID,22,VALID,0.331445,
2009-08-14, 03:26:01,VALID,915.197,VALID,0,VALID,100,VALID,-0.0849042,VALID,19.7981,VALID,360,VALID,0.165128,
2009-08-14, 03:27:00,VALID,915.167,VALID,0,VALID,100,VALID,-0.0849042,VALID,19.7981,VALID,339,VALID,0.287246,
2009-08-14, 03:28:00,VALID,915.128,VALID,0,VALID,100,VALID,-0.0679233,VALID,19.7819,VALID,348,VALID,0.708398,
2009-08-14, 03:29:00,VALID,915.086,VALID,0,VALID,100,VALID,-0.0849042,VALID,19.7952,VALID,30,VALID,0.789993,
2009-08-14, 03:30:00,VALID,915.074,VALID,0,VALID,100,VALID,-0.0169808,VALID,19.8041,VALID,34,VALID,0,
2009-08-14, 03:31:00,VALID,915.061,VALID,0,VALID,100,VALID,-0.0849042,VALID,19.8076,VALID,36,VALID,0.119855,
2009-08-14, 03:32:00,VALID,915.065,VALID,0,VALID,100,VALID,-0.0849042,VALID,19.7949,VALID,53,VALID,0,
2009-08-14, 03:33:00,VALID,915.066,VALID,0,VALID,100,VALID,-0.0169808,VALID,19.7849,VALID,7,VALID,0.319382,
2009-08-14, 03:34:00,VALID,915.058,VALID,0,VALID,100,VALID,-0.0849042,VALID,19.7722,VALID,1,VALID,0.194602,
2009-08-14, 03:35:00,VALID,915.025,VALID,0,VALID,100,VALID,-0.0509425,VALID,19.756,VALID,29,VALID,0.00190549,
2009-08-14, 03:36:00,VALID,914.998,VALID,0,VALID,100,VALID,-0.0339617,VALID,19.759,VALID,42,VALID,0,
2009-08-14, 03:37:00,VALID,914.971,VALID,0,VALID,100,VALID,-0.0169808,VALID,19.7555,VALID,61,VALID,0,
2009-08-14, 03:38:00,VALID,914.987,VALID,0,VALID,100,VALID,-0.0849042,VALID,19.7592,VALID,51,VALID,0,
2009-08-14, 03:39:00,VALID,914.987,VALID,0,VALID,100,VALID,-0.0679233,VALID,19.7595,VALID,69,VALID,0.118823,
2009-08-14, 03:40:00,VALID,915.014,VALID,0,VALID,100,VALID,-0.0679233,VALID,19.7557,VALID,64,VALID,0,
2009-08-14, 03:41:00,VALID,915.036,VALID,0,VALID,100,VALID,-0.0849042,VALID,19.7625,VALID,53,VALID,0,
2009-08-14, 03:42:00,VALID,915.056,VALID,0,VALID,100,VALID,-0.0849042,VALID,19.7787,VALID,33,VALID,0,
2009-08-14, 03:43:00,VALID,915.074,VALID,0,VALID,100,VALID,-0.0339617,VALID,19.7784,VALID,26,VALID,0,
2009-08-14, 03:44:00,VALID,915.092,VALID,0,VALID,100,VALID,-0.0849042,VALID,19.7819,VALID,41,VALID,0.0648438,
2009-08-14, 03:45:00,VALID,915.099,VALID,0,VALID,100,VALID,-0.0509425,VALID,19.7952,VALID,40,VALID,0.458147,
2009-08-14, 03:46:00,VALID,915.112,VALID,0,VALID,100,VALID,-0.0849042,VALID,19.7981,VALID,37,VALID,0.387074,
2009-08-14, 03:47:00,VALID,915.108,VALID,0,VALID,100,VALID,-0.0509425,VALID,19.8176,VALID,43,VALID,0.00260417,
2009-08-14, 03:48:00,VALID,915.105,VALID,0,VALID,100,VALID,-0.0679233,VALID,19.8244,VALID,24,VALID,0,